This is the latest recevied weather packets stored in our database for station/object SP8AQK-13. If no packets are shown the sender has not sent any weather packets the latest 10 day(s).
| Time | Temp. | Humidity | Pressure | Rain* | Wind** | Luminosity | Snow |
|---|---|---|---|---|---|---|---|
| 1777632205 | 17.22° C | 40% | 1026.8 hPa | - | - | - | - |
| 1777631004 | 17.22° C | 40% | 1027.1 hPa | - | - | - | - |
| 1777629803 | 17.22° C | 40% | 1027.2 hPa | - | - | - | - |
| 1777628603 | 17.22° C | 40% | 1027.4 hPa | - | - | - | - |
| 1777627402 | 15.56° C | 43% | 1027.8 hPa | - | - | - | - |
| 1777626201 | 15.56° C | 42% | 1028 hPa | - | - | - | - |
| 1777625001 | 14.44° C | 43% | 1028.2 hPa | - | - | - | - |
| 1777622599 | 12.22° C | 46% | 1028.8 hPa | - | - | - | - |
| 1777620198 | 10.56° C | 50% | 1029 hPa | - | - | - | - |
| 1777618997 | 9.44° C | 52% | 1029.2 hPa | - | - | - | - |
| 1777617796 | 8.89° C | 53% | 1029.4 hPa | - | - | - | - |
| 1777616595 | 8.33° C | 54% | 1029.5 hPa | - | - | - | - |
| 1777615395 | 7.22° C | 57% | 1029.8 hPa | - | - | - | - |
| 1777614194 | 6.67° C | 58% | 1029.6 hPa | - | - | - | - |
| 1777612993 | 6.11° C | 60% | 1029.4 hPa | - | - | - | - |
| 1777611792 | 6.11° C | 60% | 1029.6 hPa | - | - | - | - |
| 1777610592 | 5.56° C | 62% | 1029.6 hPa | - | - | - | - |
| 1777609391 | 5° C | 65% | 1029.7 hPa | - | - | - | - |
| 1777608190 | 5° C | 64% | 1029.6 hPa | - | - | - | - |
| 1777606989 | 4.44° C | 69% | 1029.6 hPa | - | - | - | - |
| 1777605789 | 4.44° C | 72% | 1029.6 hPa | - | - | - | - |
| 1777604588 | 4.44° C | 71% | 1029.8 hPa | - | - | - | - |
| 1777603387 | 4.44° C | 69% | 1029.7 hPa | - | - | - | - |
| 1777602187 | 4.44° C | 70% | 1029.8 hPa | - | - | - | - |
| 1777600986 | 4.44° C | 69% | 1029.5 hPa | - | - | - | - |
* Rain since midnight (hover to see other rain measurements)
** Current wind speed in m/s (hover to see current wind gust speed)